Regional Weather Roundup
Issued by NWS

Home | Current Version | Previous Version | Text Only | Print | Product List | Glossary Off
Versions: 1 2 3 4 5 6 7 8 9 10 11 12 13 14 15 16 17 18 19 20 21 22 23 24 25 26 27 28 29 30 31 32 33 34 35 36 37 38 39 40 41 42 43 44 45 46 47 48 49 50

000
ASUS43 KMPX 030801
RWRMN
WEATHER ROUNDUP FOR MINNESOTA
NATIONAL WEATHER SERVICE TWIN CITIES/CHANHASSEN MN
300 AM CDT FRI JUL 03 2015


NOTE: "FAIR" INDICATES FEW OR NO CLOUDS BELOW 12,000 FEET WITH NO
SIGNIFICANT WEATHER AND/OR OBSTRUCTIONS TO VISIBILITY. N/A MEANS
CURRENT SKY AND/OR WEATHER CONDITIONS ARE NOT AVAILABLE.

MNZ060>063-068>070-030900-
   Twin Cities Metro

CITY           SKY/WX    TMP DP  RH WIND       PRES   REMARKS
TWIN CITIES    CLEAR     65  55  70 CALM      29.98S
ST PAUL        CLEAR     60  58  92 CALM      29.98S
CRYSTAL        CLEAR     58  55  90 CALM      29.96S
BLAINE         CLEAR     59  57  94 CALM      29.97S
LAKEVILLE      CLEAR     55  55 100 SW3       29.98S
EDEN PRAIRIE   CLEAR     61  57  87 SW3       29.97S
SOUTH ST PAUL  CLEAR     60  57  88 CALM      29.97S
LAKE ELMO      FAIR      55  55 100 CALM      29.99S
$$
MNZ001>005-007-008-013>017-022>024-027-028-030900-
   Northwest Minnesota

CITY           SKY/WX    TMP DP  RH WIND       PRES   REMARKS
BEMIDJI        CLEAR     61  53  74 SW5       29.92S
HALLOCK        FOG       63  61  94 W6        29.88S VSB<1/4
ROSEAU         PTCLDY    64  61  88 W5        29.88R HAZE
WARROAD        PTCLDY    63  59  88 SW3       29.88R
THIEF RVR FALL CLOUDY    63  55  77 CALM      29.90S
CROOKSTON      CLEAR     63  59  88 CALM      29.90S
FOSSTON        MOCLDY    61  54  77 S6        29.92S
DETROIT LAKES  CLEAR     63  54  72 SW7       29.95S
MOORHEAD       CLEAR     63  57  82 S7        29.93S
PARK RAPIDS    MOCLDY    60  53  77 W3        29.94S
MAHNOMEN       FAIR      59  55  84 S8        29.92F
$$
MNZ006-009>011-018-025>026-030900-
   North Central Minnesota

CITY           SKY/WX    TMP DP  RH WIND       PRES   REMARKS
BAUDETTE       CLOUDY    64  56  75 W6        29.86S
FLAG ISLAND    MOCLDY    66  64  94 W8        29.84S FOG
INTL FALLS     CLOUDY    64  57  78 W6        29.86S
WASKISH        PTCLDY    68  59  73 SW10G17   29.88F
BIG FORK       PTCLDY    64  54  68 SW7       29.90F
LONGVILLE      PTCLDY    64  52  63 SW7       29.93S
GRAND RAPIDS   MOCLDY    64  50  59 SW8       29.92F
CRANE LAKE     PTCLDY    63  57  82 S2        29.87F
ORR            MOCLDY    64  54  68 SW6       29.86S
COOK           LGT RAIN  64  57  77 W5        29.90S
WALKER         PTSUNNY   63  52  66 W8        29.92F
$$
MNZ012-019>021-037-030900-
   Northeast Minnesota

CITY           SKY/WX    TMP DP  RH WIND       PRES   REMARKS
DULUTH         MOCLDY    64  55  72 W9        29.92F
ELY            CLOUDY    64  57  77 SW5       29.89S
HIBBING        MOCLDY    59  55  87 S3        29.91F
DULUTH HARBOR  CLOUDY    63  57  82 SW10      29.91F
TWO HARBORS    PTCLDY    66  59  77 W8        29.89F
SILVER BAY     MOCLDY    66  55  68 CALM      29.87F
GRAND MARAIS     N/A     52  49  89 W6        29.84F
G MARAIS ARPRT PTCLDY    61  54  77 SW7       29.88F
$$
MNZ029>031-032-039>041-046>048-054>057-064-030900-
   West Central Minnesota

CITY           SKY/WX    TMP DP  RH WIND       PRES   REMARKS
FERGUS FALLS   CLEAR     61  55  82 S3        29.95S
WHEATON        CLEAR     55  52  88 S5        29.97F
MORRIS         CLEAR     57  54  88 S5        29.96F
ALEXANDRIA     CLEAR     60  52  74 SW8       29.97F
ELBOW LAKE     FAIR      58  55  88 S7        29.96S
WADENA         PTCLDY    55  52  88 CALM      29.95S
GLENWOOD       CLEAR     55  52  88 SW6       29.98F
APPLETON       CLEAR     55  52  88 SW3       29.97S
BENSON         CLEAR     54  52  94 CALM      29.98R
ORTONVILLE     CLEAR     59  54  82 W3        29.97S
MADISON        CLEAR     55  52  88 SW3       29.99R
WILLMAR        FAIR      55  54  94 CALM      30.00R
$$
MNZ033>034-036-042>043-049>051-058-059-030900-
   Central Minnesota

CITY           SKY/WX    TMP DP  RH WIND       PRES   REMARKS
ST CLOUD       CLEAR     53  52  96 CALM      29.97S
SAUK CENTRE    FAIR      53  51  94 CALM      29.98S
PAYNESVILLE    CLEAR     48  49 100 CALM      29.98S
AITKIN         PTCLDY    61  52  72 SW3       29.93S
PINE RIVER     PTCLDY    54  52  94 CALM      29.97F
BRAINERD       CLEAR     53  52  96 SW3       29.95F
STAPLES        PTCLDY    55  50  82 CALM      29.95S
LONG PRAIRIE   MOCLDY    52  50  93 S3        29.97F
LITTLE FALLS   CLEAR     52  50  93 CALM      29.97S
LITCHFIELD     CLEAR     57  54  88 CALM      29.99R
BUFFALO        CLEAR     56  52  88 CALM      29.99S
MAPLE LAKE     CLEAR     56  53  92 SW3       29.99R
$$
MNZ037-044-045-052-053-030900-
   East Central Minnesota

CITY           SKY/WX    TMP DP  RH WIND       PRES   REMARKS
PRINCETON      CLEAR     55  54  94 CALM      29.97S
MORA             N/A     54  52  94 CALM      29.99R FOG
CAMBRIDGE      CLEAR     61  52  72 CALM      29.95S
RUSH CITY      MOCLDY    56  54  94 CALM      29.97R
MOOSE LAKE     CLOUDY    54  52  94 CALM      29.93S FOG
HINCKLEY       FAIR      54  54 100 CALM      29.96S
CLOQUET        MOCLDY    63  54  72 SW6       29.93F
MCGREGOR       CLEAR     59  55  88 S3        29.94F
$$
MNZ071>073-080-081-089-090-097-098-030900-
   Southwest Minnesota

CITY           SKY/WX    TMP DP  RH WIND       PRES   REMARKS
MONTEVIDEO     CLEAR     57  52  82 W6        29.99R
GRANITE FALLS  CLEAR     54  52  94 CALM      30.00S
CANBY          CLEAR     59  54  82 SW6       30.00R
MARSHALL       CLEAR     54  48  82 SW6       29.99S
REDWOOD FALLS  CLEAR     56  50  80 SW7       29.99S
OLIVIA         CLEAR     52  48  87 SW6       29.98S
PIPESTONE      CLEAR     54  50  87 CALM      30.02S
WINDOM         CLEAR     52  52 100 CALM      30.02S
WORTHINGTON    CLEAR     52  46  82 S5        30.02F
JACKSON        CLEAR     54  50  87 CALM      30.03S
TRACY          CLEAR     56  53  88 SW6       30.01S
SLAYTON        CLEAR     51  50  95 CALM      30.03S
$$
MNZ065>067-074>077-082>085-091>093-030900-
   South Central Minnesota

CITY           SKY/WX    TMP DP  RH WIND       PRES   REMARKS
MANKATO        CLEAR     61  52  72 SW5       30.00R
NEW ULM        CLEAR     54  52  94 W3        30.00S
ST JAMES       CLEAR     55  52  88 CALM      30.02S
FAIRMONT       CLEAR     55  46  71 CALM      30.01S
GLENCOE        CLEAR     55  54  96 S3        29.98S
FARIBAULT      CLEAR     55  54  94 CALM      29.99S
OWATONNA       CLEAR     55  52  88 S3        30.00S
WASECA         CLEAR     52  50  93 CALM      30.01S
ALBERT LEA     CLEAR     57  55  94 CALM      30.01S
$$
MNZ078>079-086>088-094>096-030900-
   Southeast Minnesota

CITY           SKY/WX    TMP DP  RH WIND       PRES   REMARKS
ROCHESTER      PTCLDY    56  53  90 S6        30.01R
RED WING       CLEAR     55  54  94 CALM      29.97S
DODGE CENTER   CLEAR     55  52  88 SW5       30.01R
WINONA         PTCLDY    55  55 100 CALM      29.99S
AUSTIN         PTCLDY    59  55  88 CALM      30.00S
PRESTON        PTCLDY    56  53  90 SW5       30.01S
$$
ABBREVIATIONS USED IN REMARKS
   TC - TEMPERATURES IN CELSIUS
  WCI - WIND CHILL INDEX
   HX - HEAT INDEX
  VSB - VISIBILITY
$$



USA.gov is the U.S. government's official web portal to all federal, state and local government web resources and services.